Tracking 19909 objects as of 21-Oct-2019
HD Live streaming from Space Station
objects crossing your sky now

THORAD DELTA 1 DEB

Track THORAD DELTA 1 DEB now!
10-day predictions


NORAD ID: 8152
Int'l Code: 1974-089S
Perigee: 1,384.5 km
Apogee: 1,477.4 km
Inclination: 101.6 °
Period: 114.3 minutes
Semi major axis: 7801 km
RCS: 0.0989 m2 (small)
Launch date: November 15, 1974
Source: United States (US)
Launch site: AIR FORCE WESTERN TEST RANGE (AFWTR)

Note: This is SATELLITE DEBRIS
aabbcc
Your satellite tracking list
Your tracking list is empty




NASA's NSSDC Master Catalog

Two Line Element Set (TLE):
1  8152U 74089S   19292.87459352  .00000033  00000-0  44274-3 0  9990
2  8152 101.6024 258.7608 0059502  58.5281 329.2679 12.59789264 64593
Source of the keplerian elements: AFSPC